Location: Bratislava
(48.1517°N, 17.1093°E)
Time: 16:49:30
(UTC+02:00)

ISS - Pass Details

Date: 24 April 2024
Orbit: 409 x 414 km, 51.6° (Epoch: 21 May)

Event Time Altitude Azimuth Distance (km) Brightness Sun altitude
Exits shadow 03:56:14 15° 160° (SSE) 1,202 -1.7 -16.2°
Maximum altitude 03:57:14 17° 138° (SE) 1,122 -1.6 -16.1°
Drops below altitude 10° 03:59:29 10° 95° (E) 1,476 -0.4 -15.8°
Sets 04:02:03 0° 75° (ENE) 2,341 1.2 -15.5°
